Voltar ao catálogo

FALCON HEAVY R/B

AtivoHEO
NORAD 60134·ROCKET BODY·🇺🇸 United States

Lançado Jun 25, 2024 de Cape Canaveral Space Force Station

Loading…

Próximas Passagens (próximas 24 horas)

TLE

AtualizadoSource: Space-Track

Época: Sep 14, 2026, 01:51 UTC

1 60134U 24119B   26257.07753212 -.00000125  00000-0  00000-0 0  9999
2 60134   6.0469  63.6855 2944240 246.8865  79.7844  1.51714934 12308

Acompanhe FALCON HEAVY R/B em tempo real com AllMySat

Download on the App Store